{"data":{"norad_id":68040,"epoch":"2026-09-19T11:42:12.862368Z","epoch_age_seconds":146990,"freshness":"FRESH","line1":"1 68040U 26041A   26262.48764887  .00018490  00000+0  55695-3 0  9995","line2":"2 68040  53.1595 224.4586 0001274  98.4497 261.6650 15.34404498 31130","mean_motion":15.34404498,"eccentricity":0.0001274,"inclination_deg":53.1595,"raan_deg":224.4586,"arg_perigee_deg":98.4497,"mean_anomaly_deg":261.665,"bstar":0.00055695,"rev_number":3113,"period_min":93.847482973163,"perigee_km":461.81834989246,"apogee_km":463.56139257925,"semimajor_km":6840.8268712359,"source":"CELESTRAK","updated_at":"2026-09-20T09:00:43.746858Z"}}